Hourly Data Report for March 10, 2017

All times are specified in Local Standard Time (LST). Add 1 hour to adjust for Daylight Saving Time where and when it is observed.

TORONTO CITY
ONTARIO

43°40'00.000" N
79°24'00.000" W
112.50 m
6158355
71508
XTO

Download Data

Hourly Data (March 2017)
Hourly Data Report for March 10, 2017
TIME Temp Definition
°C
Dew Point Definition
°C
Rel Hum Definition
%
Wind Dir Definition
10's deg

Wind Spd Definition
km/h
Visibility Definition
km
Stn Press Definition
kPa
Hmdx Definition


Wind Chill Definition


Weather Definition


00:00 -0.1 -8.2 55 LegendMM LegendMM   100.31     LegendNANA
01:00 -0.3 -8.2 55 LegendMM LegendMM   100.28     LegendNANA
02:00 -1.0 -8.2 58 LegendMM LegendMM   100.18     LegendNANA
03:00 -1.3 -7.6 62 LegendMM LegendMM   100.14     LegendNANA
04:00 -2.2 -9.1 59 LegendMM LegendMM   100.13     LegendNANA
05:00 -2.6 -10.0 57 LegendMM LegendMM   100.19     LegendNANA
06:00 -3.2 -10.2 59 LegendMM LegendMM   100.28     LegendNANA
07:00 -4.0 -11.0 58 LegendMM LegendMM   100.30     LegendNANA
08:00 -4.3 -10.4 62 LegendMM LegendMM   100.38     LegendNANA
09:00 -4.6 -12.5 54 LegendMM LegendMM   100.41     LegendNANA
10:00 -4.5 -12.2 55 LegendMM LegendMM   100.42     LegendNANA
11:00 -4.2 -14.7 44 LegendMM LegendMM   100.44     LegendNANA
12:00 -4.0 -13.3 48 LegendMM LegendMM   100.45     LegendNANA
13:00 -4.7 -17.5 36 LegendMM LegendMM   100.45     LegendNANA
14:00 -5.0 -18.5 34 LegendMM LegendMM   100.46     LegendNANA
15:00 -6.1 -19.4 34 LegendMM LegendMM   100.52     LegendNANA
16:00 -7.2 -18.0 42 LegendMM LegendMM   100.59     LegendNANA
17:00 -8.1 -20.2 37 LegendMM LegendMM   100.67     LegendNANA
18:00 -8.4 -19.1 42 LegendMM LegendMM   100.72     LegendNANA
19:00 -9.2 -18.2 48 LegendMM LegendMM   100.76     LegendNANA
20:00 -9.2 -17.7 50 LegendMM LegendMM   100.80     LegendNANA
21:00 -9.3 -16.6 55 LegendMM LegendMM   100.80     LegendNANA
22:00 -9.0 -15.8 58 LegendMM LegendMM   100.80     LegendNANA
23:00 -8.8 -15.3 59 LegendMM LegendMM   100.79     LegendNANA

Notes on Data Quality.

Legend

  • E = Estimated
  • M = Missing
  • NA = Not Available
Date modified: